Regional Weather Roundup
Issued by NWS Upton, NY

Current Version | Previous Version | Graphics & Text | Print | Product List | Glossary Off
Versions: 1 2 3 4 5 6 7 8 9 10 11 12 13 14 15 16 17 18 19 20 21 22 23 24 25 26 27 28 29 30 31 32 33 34 35 36 37 38 39 40 41 42 43 44 45 46 47 48 49 50

000
ASUS41 KOKX 171609
RWROKX

REGIONAL WEATHER ROUNDUP
NATIONAL WEATHER SERVICE NEW YORK NY
1100 AM EST FRI NOV 17 2017

NOTE: "FAIR" INDICATES FEW OR NO CLOUDS BELOW 12,000 FEET WITH NO
SIGNIFICANT WEATHER AND/OR OBSTRUCTIONS TO VISIBILITY.

NYZ071-072-176-178-NJZ106-104-171700-
NEW YORK CITY METRO AREA

CITY           SKY/WX    TMP DP  RH WIND       PRES   REMARKS
Central Park   SUNNY     43  23  45 VRB7G22   30.09F
Bronx Bot Gard   N/A     43  25  49 N14       30.06S
LaGuardia APRT MOSUNNY   44  27  51 NW20G25   30.06F
Kennedy INTL   MOSUNNY   45  26  47 W21G26    30.08F
Breezy Point     N/A     41 N/A N/A W13G23      N/A
Newark/Liberty MOSUNNY   45  24  43 NW16G24   30.09S
Teterboro      SUNNY     44  24  45 NW16G25   30.07F
$$

NYZ177-179-078>081-171700-
LONG ISLAND NEW YORK

CITY           SKY/WX    TMP DP  RH WIND       PRES   REMARKS
Jones Beach      N/A     43 N/A N/A NW20G28     N/A
Matinecock PT    N/A     43 N/A N/A NW24        N/A
Farmingdale    MOSUNNY   45  26  47 NW12G20   30.04F
MacArthur/ISP  MOSUNNY   46  26  45 W15G23    30.02S
Shirley        MOSUNNY   46  28  49 NW18G28   30.02S
Mt Sinai Harb    N/A    N/A N/A N/A NW12G18     N/A
Westhampton    SUNNY     45  27  49 NW18G24   30.01F
East Hampton   FAIR      43  26  52 NW16G25   29.98F
Southold       NOT AVBL
Montauk          N/A     45  28  51 NW15G30   29.98S
$$

NYZ052-065-067-171700-
HUDSON VALLEY

CITY           SKY/WX    TMP DP  RH WIND       PRES   REMARKS
White Plains   MOSUNNY   43  23  45 W21G26    30.03S
Larchmont Harb   N/A     41 N/A N/A W18G28      N/A
Croton On Huds   N/A     45 N/A N/A NW22        N/A
Newburgh       MOSUNNY   43  27  52 NW17G25   30.06S
Montgomery     SUNNY     43  24  47 NW10G20   30.05F
Poughkeepsie   SUNNY     45  22  40 NW14G24   30.04F
Albany         MOSUNNY   37  21  52 NW20G28   30.08F WCI  27
$$

NJZ001-105-106-008-010-013-015-019>022-104-171700-
NEW JERSEY

CITY           SKY/WX    TMP DP  RH WIND       PRES   REMARKS
Newark/Liberty MOSUNNY   45  24  43 NW16G24   30.09S
Teterboro      SUNNY     44  24  45 NW16G25   30.07F
Caldwell       SUNNY     42  25  50 NW18G25   30.09F
Somerville     SUNNY     44  24  45 NW12G22   30.09F
Linden         FAIR      44  22  43 NW13G22   30.09F
Perth Amboy      N/A     41 N/A N/A NW18        N/A
Sussex         SUNNY     40  25  55 W13G23    30.09F WCI  32
Andover          N/A     40  23  50 N10G17    30.10F WCI  33
Trenton        SUNNY     46  25  43 NW12      30.11F
Millville      SUNNY     49  30  48 NW12G26   30.14F
Atlantic City  SUNNY     49  28  44 NW20G25   30.12F
Wrightstown    SUNNY     46  25  45 NW15      30.09F
Toms River     SUNNY     45  25  45 NW20      30.11F
Belmar         SUNNY     44  25  47 W16G24    30.10F
$$

PAZ047>061-062-071-171700-
EASTERN PENNSYLVANIA

CITY           SKY/WX    TMP DP  RH WIND       PRES   REMARKS
Philadelphia   SUNNY     46  23  40 NW16      30.15F
Allentown      SUNNY     43  24  47 NW14      30.14F
Scranton       SUNNY     40  22  48 N15G23    30.14F WCI  32
$$

CTZ002-004>006-009-010-012-RIZ004-006-007-MAZ004-011-015-171700-
SOUTHERN NEW ENGLAND
 IN CT

CITY           SKY/WX    TMP DP  RH WIND       PRES   REMARKS
Bradley INTL   MOSUNNY   41  23  48 NW20G25   29.99F
Hartford       MOSUNNY   42  24  49 NW12G21   30.00F
Danbury        MOSUNNY   44  23  43 NW14G24   30.03F
Wtrbury/Oxford MOSUNNY   39  25  57 NW15G25   29.99S WCI  31
Norwalk Harbor   N/A     41 N/A N/A NW15G22     N/A
Bridgeport     SUNNY     46  25  43 NW15G23   30.01S
Meriden        SUNNY     42  24  49 NW18G24   30.00F
New Haven      MOSUNNY   44  26  49 NW13G22   30.01S
Chester        FAIR      41  23  48 NW20G30   29.97S
Groton         SUNNY     43  25  49 NW26G32   29.96S
Wilimantic     MOSUNNY   42  25  50 NW8G23    29.97S

 IN RI

CITY           SKY/WX    TMP DP  RH WIND       PRES   REMARKS
Providence     MOSUNNY   44  25  47 NW16G26   29.92S
Block Island   SUNNY     43  26  51 NW16G26   29.94F
Westerly       SUNNY     43  26  51 NW14G28   29.94F
 IN MA

CITY           SKY/WX    TMP DP  RH WIND       PRES   REMARKS
Boston         MOSUNNY   41  25  53 NW20G36   29.88S
Worcester      SUNNY     36  20  52 NW28G38   29.89R WCI  23
Westfield      SUNNY     41  23  48 NW21G28   29.97F
Provincetown   MOSUNNY   42  30  62 NW26G37   29.85S
Nantucket      PTSUNNY   43  30  60 NW24G31   29.86S
$$

ANZ330-335-338-340-345-350-353-355-171700-
COASTAL MARINE OBSERVATIONS


STATION/POSITION TIME  SKY/WX   TEMP    WIND        PRES    VSBY  WAVE
                                AIR SEA DIR/SP/G                  HT/PER
                 (UTC)          (F)     (DEG/KT/KT) (MB)    (MI)  (FT/S)
NY HARB ENTRANCE 1450            43 57  300/ 23/ 31 1017.6          4/ 5
20 S FIRE ISLAND 1550            44 58  310/ 21/ 25 1017.4          6/ 6
GREAT SOUTH BAY  1530            43 46  310/ 17/ 23   N/A
HUDSON CANYON    1450            47 60  310/ 27/ 33 1016.4         10/ 8
KINGS POINT      1524            42 51   10/ 19/ 24 1019.1
EXECUTION ROCKS  1530            45     280/ 17/ 23   N/A
WESTERN LI SOUND 1519            44     300/ 17/ 25   N/A           2/ 3
CENTRAL LI SOUND NOT AVBL
ROBBINS REEF     1548            42     290/ 20/ 25 1019.1
$$


>>>>>>>>>>>>>>>>>>>>>>>>>>>> KEY <<<<<<<<<<<<<<<<<<<<<<<<<<<
>                                                          <
>     SKY/WX - Sky Condition/Present Weather               <
>     TMP    - Temperature in Fahrenheit                   <
>     DP     - Dew Point in Fahrenheit                     <
>     RH     - Relative Humidity in Percent                <
>     WIND   - Direction (from) and Speed in MPH           <
>     PRES   - Mean Sea Level Pressure (inches of Hg)      <
>     WCI    - Wind Chill Index                            <
>     VSB    - VISIBILITY IN MILES                         <
>     HX     - HEAT INDEX                                  <
>     TC     - TEMPERATURE IN CELSIUS                      <
>     VRB    - VARIABLE WIND DIRECTION                     <
>                                                          <
>>>>>>>>>>>>>>>>>>>>>>>>>>>> KEY <<<<<<<<<<<<<<<<<<<<<<<<<<<



USA.gov is the U.S. government's official web portal to all federal, state and local government web resources and services.